Weather History for KIGX - May, 2013

Change the Weather History Date:

Tuesday, May 21, 2013

  Actual Average Record
Temperature  
Mean Temperature 75 °F -  
Max Temperature 84 °F 79 °F - (-1)
Min Temperature 68 °F 56 °F - (-1)
Cooling Degree Days 10    
Growing Degree Days 25 (Base 50)    
Moisture  
Dew Point 68 °F    
Average Humidity 82    
Maximum Humidity 93    
Minimum Humidity 60    
Precipitation  
Precipitation 0.00 in - - ()
Sea Level Pressure  
Sea Level Pressure 30.02 in    
Wind  
Wind Speed 2 mph (SSW)    
Max Wind Speed 8 mph    
Max Gust Speed -    
Visibility 8 miles    
Events      
Averages and records for this station are not official NWS values.
T = Trace of Precipitation, MM = Missing Value Source: NWS Daily Summary

Daily Weather History Graph

Daily Weather History Graph

Search for Another Location

Airport or City:

Trip Planner

Search our weather history database for the weather conditions in past years. The results will help you decide how hot, cold, wet, or windy it might be!

Date:

Astronomy

May. 21, 2013 Rise Set
Actual Time 6:06 AM EDT 8:19 PM EDT
Civil Twilight 5:37 AM EDT 8:48 PM EDT
Nautical Twilight 5:01 AM EDT 9:24 PM EDT
Astronomical Twilight 4:23 AM EDT 10:03 PM EDT
Moon 4:37 PM EDT (5/21) 3:25 AM EDT (5/21)
Length of Visible Light 15h 11m
Length of Day
14h 13m
Waxing Gibbous, 84% of the Moon is Illuminated
May 21
Waxing Gibbous
May 25
Full
May 31
Last Quarter
Jun 8
New
Jun 16
First Quarter

Hourly Weather History & Observations

Time (EDT) Temp. Heat Index Dew Point Humidity Pressure Visibility Wind Dir Wind Speed Gust Speed Precip Events Conditions
12:56 AM 69.1 °F - 66.0 °F 90% 30.03 in 8.0 mi Calm Calm - N/A   Overcast
1:56 AM 68.0 °F - 66.0 °F 93% 30.02 in 8.0 mi Variable 3.5 mph - N/A   Overcast
2:56 AM 68.0 °F - 64.9 °F 90% 30.02 in 8.0 mi Calm Calm - N/A   Overcast
3:56 AM 68.0 °F - 66.0 °F 93% 30.02 in 4.0 mi Calm Calm - N/A   Overcast
4:13 AM 68.0 °F - 66.0 °F 93% 30.03 in 2.5 mi Calm Calm - N/A   Overcast
4:41 AM 68.0 °F - 66.0 °F 93% 30.03 in 3.0 mi Calm Calm - N/A   Overcast
4:56 AM 68.0 °F - 66.0 °F 93% 30.02 in 3.0 mi Calm Calm - N/A   Overcast
5:07 AM 68.0 °F - 66.0 °F 93% 30.03 in 2.5 mi SW 3.5 mph - N/A   Overcast
5:20 AM 68.0 °F - 66.0 °F 93% 30.04 in 3.0 mi Calm Calm - N/A   Overcast
5:47 AM 68.0 °F - 66.0 °F 93% 30.04 in 5.0 mi Calm Calm - N/A   Overcast
5:56 AM 68.0 °F - 66.0 °F 93% 30.04 in 5.0 mi Calm Calm - N/A   Overcast
6:13 AM 68.0 °F - 66.0 °F 93% 30.05 in 5.0 mi Calm Calm - N/A   Overcast
6:56 AM 68.0 °F - 66.0 °F 93% 30.04 in 4.0 mi Calm Calm - N/A   Overcast
7:56 AM 69.1 °F - 66.0 °F 90% 30.05 in 6.0 mi Calm Calm - N/A   Overcast
8:56 AM 69.1 °F - 66.0 °F 90% 30.06 in 6.0 mi Variable 3.5 mph - N/A   Overcast
9:56 AM 72.0 °F - 66.9 °F 84% 30.05 in 9.0 mi Variable 3.5 mph - N/A   Overcast
10:15 AM 75.0 °F - 68.0 °F 79% 30.06 in 10.0 mi Variable 5.8 mph - N/A   Mostly Cloudy
10:56 AM 75.0 °F - 68.0 °F 79% 30.05 in 10.0 mi Variable 3.5 mph - N/A   Mostly Cloudy
11:07 AM 75.0 °F - 68.0 °F 79% 30.06 in 10.0 mi Variable 4.6 mph - N/A   Mostly Cloudy
11:27 AM 75.9 °F - 68.0 °F 76% 30.06 in 10.0 mi Calm Calm - N/A   Scattered Clouds
11:35 AM 75.9 °F - 68.0 °F 76% 30.06 in 10.0 mi WSW 4.6 mph - N/A   Mostly Cloudy
11:56 AM 78.1 °F - 70.0 °F 76% 30.04 in 10.0 mi Variable 3.5 mph - N/A   Overcast
12:56 PM 79.0 °F - 69.1 °F 72% 30.03 in 10.0 mi Variable 5.8 mph - N/A   Mostly Cloudy
1:17 PM 79.0 °F - 69.1 °F 72% 30.03 in 10.0 mi Variable 3.5 mph - N/A   Mostly Cloudy
1:40 PM 79.0 °F - 69.1 °F 72% 30.02 in 10.0 mi Variable 3.5 mph - N/A   Mostly Cloudy
1:56 PM 81.0 °F 84.4 °F 70.0 °F 69% 30.01 in 10.0 mi Calm Calm - N/A   Overcast
2:11 PM 82.0 °F 85.9 °F 70.0 °F 67% 30.02 in 10.0 mi Calm Calm - N/A   Overcast
2:56 PM 82.9 °F 85.8 °F 68.0 °F 60% 29.99 in 10.0 mi Calm Calm - N/A   Partly Cloudy
3:44 PM 82.0 °F 85.9 °F 70.0 °F 67% 29.99 in 10.0 mi Variable 6.9 mph - N/A   Mostly Cloudy
3:54 PM 80.6 °F 83.9 °F 69.8 °F 70% 29.98 in 10.0 mi Variable 4.6 mph - N/A   Mostly Cloudy
3:56 PM 80.1 °F 82.9 °F 69.1 °F 69% 29.96 in 10.0 mi Calm Calm - N/A   Overcast
4:56 PM 81.0 °F 84.1 °F 69.1 °F 67% 29.96 in 10.0 mi Variable 4.6 mph - N/A   Clear
5:56 PM 82.0 °F 85.9 °F 70.0 °F 67% 29.96 in 10.0 mi Variable 3.5 mph - N/A   Partly Cloudy
6:56 PM 79.0 °F - 69.1 °F 72% 29.96 in 10.0 mi SSE 8.1 mph - N/A   Partly Cloudy
7:56 PM 75.0 °F - 68.0 °F 79% 29.96 in 10.0 mi SSE 4.6 mph - N/A   Clear
8:56 PM 73.0 °F - 68.0 °F 84% 29.95 in 10.0 mi Calm Calm - N/A   Clear
9:56 PM 71.1 °F - 66.9 °F 87% 29.98 in 8.0 mi Calm Calm - N/A   Clear
10:56 PM 70.0 °F - 66.9 °F 90% 29.99 in 7.0 mi Calm Calm - N/A   Clear
11:28 PM 69.1 °F - 66.0 °F 90% 30.01 in 6.0 mi Calm Calm - N/A   Mostly Cloudy
11:56 PM 70.0 °F - 66.9 °F 90% 30.00 in 8.0 mi Calm Calm - N/A   Mostly Cloudy